Location: Unspecified
(48.2082°N, 0.0000°E)
Time: 22:53:14
(UTC+00:00)

Vanguard 1 - Pass Details

Date: 02 July 2019
Orbit: 653 x 3830 km, 34.3° (Epoch: 20 July)

Event Time Altitude Azimuth Distance (km) Brightness Sun altitude
Rises 21:39:36 0° 202° (SSW) 7,474 14.2 -11.8°
Reaches altitude 10° 21:45:37 10° 192° (SSW) 6,722 13.9 -12.3°
Maximum altitude 22:03:09 29° 143° (SE) 5,401 13.2 -13.8°
Drops below altitude 10° 22:19:02 10° 93° (E) 6,158 13.8 -15.0°
Sets 22:24:05 0° 84° (E) 6,792 14.2 -15.3°
